Regional Weather Roundup
Issued by NWS Bismarck, ND

Home | Current Version | Previous Version | Text Only | Print | Product List | Glossary On
Versions: 1 2 3 4 5 6 7 8 9 10 11 12 13 14 15 16 17 18 19 20 21 22 23 24 25 26 27 28 29 30 31 32 33 34 35 36 37 38 39 40 41 42 43 44 45 46 47 48 49 50
000
ASUS43 KBIS 221210
RWRBIS

NWR BROADCAST TEXT
NATIONAL WEATHER SERVICE BISMARCK ND
600 AM CST SUN JAN 22 2017

NOTE: "FAIR" INDICATES FEW OR NO CLOUDS BELOW 12,000 FEET WITH NO
SIGNIFICANT WEATHER AND/OR OBSTRUCTIONS TO VISIBILITY.


CITY           SKY/WX    TMP DP  RH WIND       PRES   REMARKS
WILLISTON      CLOUDY    30  27  88 W9        29.72R
MINOT          CLOUDY    31  26  82 W17       29.65S WCI  19
MINOT AFB      MOCLDY    29  26  89 NW17      29.65R WCI  17
BISMARCK       CLOUDY    28  26  92 W9        29.71R WCI  19
DICKINSON      CLOUDY    20  17  88 W15       29.69R WCI   6
GARRISON         N/A     30  27  88 W9        29.67R
HETTINGER ARPT FAIR      16  13  88 NW12      29.72R WCI   3
JAMESTOWN      CLOUDY    29  28  96 NW10      29.66R FOG     WCI  20
CARRINGTON     CLOUDY    30  28  93 W8        29.68S FOG
HAZEN          CLOUDY   N/A N/A N/A W9        29.72R
MANDAN         CLOUDY    25  25 100 W10       29.70S WCI  15
RUGBY            N/A     27  27 100 NW15      29.64S FOG     WCI  15
STANLEY        CLOUDY    30  30 100 NW10      29.69R FOG
TIOGA          CLOUDY    28  28 100 NW12      29.70R WCI  18
WATFORD CITY   CLOUDY    27  27 100 W12       29.72R WCI  16
$$

CITY           SKY/WX    TMP DP  RH WIND       PRES   REMARKS
GRAND FORKS    CLOUDY    34  32  92 W5        29.66R
GRAND FORKS AF CLOUDY    34  33  99 NW5       29.66R
DEVILS LAKE    CLOUDY    30  28  92 W12       29.66R
FARGO          CLOUDY    35  33  92 W6        29.67R FOG
CAVALIER       CLOUDY    32  32 100 CALM      29.65S FOG
GRAFTON        CLOUDY    34  34 100 NW6       29.67S FOG
GWINNER        CLOUDY    32  32 100 W9        29.69R
ROLLA            N/A    N/A N/A N/A MISG        N/A
$$

CITY           SKY/WX    TMP DP  RH WIND       PRES   REMARKS
ABERDEEN       CLOUDY    27  25  92 NW10      29.71S FOG     WCI  17
MOBRIDGE       FAIR      12   7  80 N7        29.71R WCI   1
BUFFALO          N/A     18  15  88 W13       29.66R WCI   5
RAPID CITY     FAIR      28  19  69 W9        29.74R WCI  19
GLASGOW        CLOUDY    27  25  92 W14       29.76R WCI  16
SIDNEY         CLOUDY    27  25  92 W6        29.76R FOG
WOLF POINT     CLOUDY    29  25  85 W12       29.77R WCI  19
GLENDIVE       CLOUDY    27  25  92 NW7       29.76R WCI  19
MILES CITY     FAIR      12   9  87 S3        29.79R FOG
BAKER          MOCLDY    17  14  88 W14       29.76R WCI   3
$$

CITY           SKY/WX    TMP DP  RH WIND       PRES   REMARKS
BILLINGS       FAIR      27  18  69 SW13      29.79S WCI  16
GREAT FALLS    CLOUDY    25  20  81 CALM      29.80R
REGINA         CLOUDY    27  25  93 W8        29.68R WCI  18
ESTEVAN        CLOUDY    27  25  93 NW12      29.68R WCI  16
$$





USA.gov is the U.S. government's official web portal to all federal, state and local government web resources and services.